Regional Weather Roundup
Issued by NWS Sioux Falls, SD

Home | Current Version | Previous Version | Text Only | Print | Product List | Glossary Off
Versions: 1 2 3 4 5 6 7 8 9 10 11 12 13 14 15 16 17 18 19 20 21 22 23 24 25 26 27 28 29 30 31 32 33 34 35 36 37 38 39 40 41 42 43 44 45 46 47 48 49 50

000
ASUS43 KFSD 100502
RWRFSD

WEATHER ROUNDUP FOR SE SOUTH DAKOTA/SW MINNESOTA/NW IOWA
NATIONAL WEATHER SERVICE SIOUX FALLS SD
1200 AM CDT THU JUL 10 2014

NOTE: "FAIR" INDICATES FEW OR NO CLOUDS BELOW 12,000 FEET WITH NO
SIGNIFICANT WEATHER AND OR OBSTRUCTIONS TO VISIBILITY.


SDZ038>040-050-052>070-100600-
SOUTHEAST SOUTH DAKOTA

CITY           SKY/WX    TMP DP  RH WIND       PRES   REMARKS
CHAMBERLAIN    CLEAR     59  55  84 S5        29.99R
HURON          CLEAR     66  58  75 SE6       29.98R
MADISON        FAIR      63  63 100 E8        30.02R
MITCHELL       CLEAR     67  60  78 S7        29.99R
SIOUX FALLS    CLEAR     67  59  75 E7        30.01R
WINNER         FAIR      63  59  87 SE8       29.99S
YANKTON        CLEAR     66  61  82 S3        30.01R
$$

MNZ071-072-080-081-089-090-097-098-100600-
SOUTHWEST MINNESOTA

CITY           SKY/WX    TMP DP  RH WIND       PRES   REMARKS
FAIRMONT       MOCLDY    64  54  68 CALM      30.03R
JACKSON        MOCLDY    61  55  82 CALM      30.04R
LUVERNE        CLEAR     64  57  77 CALM      30.03R
MARSHALL       CLEAR     63  54  72 MISG      30.01S
MONTEVIDEO     CLEAR     63  54  72 SE3       30.01S
PIPESTONE      CLEAR     64  55  72 SE6       30.03S
REDWOOD FALLS  CLEAR     66  52  60 E3        30.01S
TRACY          CLEAR     65  54  66 CALM      30.03S
WINDOM         PTCLDY    63  55  77 CALM      30.04R
WORTHINGTON    CLEAR     63  55  77 SE6       30.05R
$$

IAZ001>003-012>014-020>022-031-032-NEZ013-014-SDZ071-100600-
NORTHWEST IOWA

CITY           SKY/WX    TMP DP  RH WIND       PRES   REMARKS
CHEROKEE       CLEAR     64  63  99 CALM      30.02S
DENISON        CLEAR     66  63  88 CALM      30.02S
ESTHERVILLE    MOCLDY    63  58  83 CALM      30.03R
LE MARS        CLEAR     64  61  88 CALM      30.03R
ORANGE CITY    PTCLDY    68  61  77 SW3       30.03R
SHELDON          N/A     64  61  88 E7        30.01S
SIOUX CITY     CLEAR     64  61  90 E6        30.01S
SPENCER        PTCLDY    65  61  87 E3        30.03R
STORM LAKE     PTCLDY    66  64  94 S8        30.05R
$$

ABBREVIATIONS USED IN REMARKS
   TC - TEMPERATURE IN CELSIUS
  WCI - WIND CHILL INDEX
   HX - HEAT INDEX
  VSB - VISIBILITY



USA.gov is the U.S. government's official web portal to all federal, state and local government web resources and services.